Home > Time Zones > World Clock > Weather > Cuba > Havana > Past weeks

Flag for Cuba Weather past 2 weeks in Havana, Cuba

Now
90 °F

Passing clouds.


Feels Like: 96 °F
Forecast: N/A
Wind: 10 mph from Northeast

Location: Aeropuerto Jose Marti - Rancho-Boyeros - Habana

Current Time: Aug 31, 2015 at 7:01:24 PM

Latest Report: Aug 31, 2015 at 5:55 PM


Visibility: 6 mi

Pressure: 30.01 "Hg

Humidity: 55%

Dew point: 72 °F

Location of HavanaLocation

Historic Weather in Havana — Graph

°F

Havana temperature yesterday

Maximum temperature yesterday: 81 °F (at 12:55 AM)
Minimum temperature yesterday: 73 °F (at 2:55 PM)
Average temperature yesterday: 76 °F

Past Weeks' High & Low Weather Summary

 TemperatureHumidityPressure
High93 °F (Aug 21, 3:55 PM)94% (Aug 24, 5:55 AM)30.07 "Hg (Aug 24, 5:55 AM)
Low72 °F (Aug 28, 6:55 AM)41% (Aug 17, 1:55 PM)29.86 "Hg (Aug 30, 2:55 AM)
Average81 °F74%29.98 "Hg
* Reported Aug 16 3:55 PM — Aug 31 3:55 PM, Havana, Weather by CustomWeather, © 2015

Note: Actual official high and low records may vary slightly from our data, if they occured in-between our weather recording intervals... More about our weather records

Advertising

Havana weather history for previous 24 hours

 ConditionsComfort  
Time TempWeatherWind HumidityBarometerVisibility
3:55 PM
Mon, Aug 31
90 °FPassing clouds.5 mph52%30.04 "Hg6 mi
2:55 PM88 °FScattered clouds.10 mph59%30.04 "Hg6 mi
1:55 PM88 °FPartly sunny.8 mph59%30.07 "Hg6 mi
12:55 PM88 °FPartly sunny.9 mph62%30.07 "Hg6 mi
11:55 AM86 °FPassing clouds.8 mph62%30.07 "Hg6 mi
10:55 AM84 °FPassing clouds.7 mph62%30.07 "Hg6 mi
9:55 AM82 °FPassing clouds.8 mph66%30.04 "Hg6 mi
8:55 AM81 °FScattered clouds.5 mph70%30.04 "Hg6 mi
7:55 AM77 °FPassing clouds.N/A74%30.01 "Hg6 mi
6:55 AM77 °FPassing clouds.5 mph74%30.01 "Hg5 mi
5:55 AM77 °FPartly cloudy.6 mph79%29.98 "Hg5 mi
4:55 AM75 °FPassing clouds.No wind83%29.98 "Hg5 mi
3:55 AM75 °FPassing clouds.No wind83%29.98 "Hg5 mi
2:55 AM73 °FPartly cloudy.5 mph89%29.98 "Hg5 mi
1:55 AM75 °FPartly cloudy.1 mph83%30.01 "Hg5 mi
12:55 AM75 °FPartly cloudy.6 mph83%30.04 "Hg5 mi
11:55 PM
Sun, Aug 30
75 °FPartly cloudy.7 mph83%30.04 "Hg5 mi
10:55 PM77 °FPassing clouds.2 mph83%30.01 "Hg5 mi
9:55 PM77 °FPassing clouds.5 mph83%30.01 "Hg5 mi
8:55 PM75 °FPassing clouds.3 mph89%29.98 "Hg5 mi
7:55 PM75 °FPartly sunny.3 mph89%29.98 "Hg5 mi
Weather by CustomWeather, © 2015

See weather overviewHow to use our weather pages